Simultaneous Nadir Overpasses (SNOs) Predictions

Prediction of SNOs between NOAA-20 and AQUA Satellite Orbit:

Table of predicted SNOs for the next 14.0 days since TLE Epoch: 11/28/2020
Index Date (NOAA-20) Time (NOAA-20) Lat,Lon (NOAA-20) SZA (NOAA-20 ) Date (AQUA) Time (AQUA) Lat,Lon (AQUA) SZA (AQUA ) Distance(km) Time Diff (sec)
1 11/28/2020 15:17:21 -81.31, 63.91 72.60 11/28/2020 15:16:08 -81.83, 63.67 72.28 58.82 73
2 12/01/2020 05:56:12 -75.47, 148.23 61.48 12/01/2020 05:57:02 -75.47, 148.21 61.52 0.67 50
3 12/01/2020 06:46:36 76.40, -41.34 117.49 12/01/2020 06:46:09 76.40, -41.30 117.51 1.00 27
4 12/03/2020 22:13:05 -75.57, -95.68 61.16 12/03/2020 22:13:28 -75.58, -95.60 61.20 2.63 23
5 12/03/2020 23:03:20 76.89, 76.33 117.34 12/03/2020 23:02:27 76.89, 76.25 117.41 2.04 53
6 12/06/2020 13:39:50 73.89,-151.86 121.03 12/06/2020 13:41:04 73.84,-151.73 120.95 6.94 74
7 12/06/2020 14:29:47 -76.22, 22.25 61.50 12/06/2020 14:29:44 -76.22, 22.22 61.49 0.91 3
8 12/06/2020 15:15:22 78.56, -76.74 102.16 12/06/2020 15:14:10 79.27, -73.88 102.61 99.38 72
9 12/09/2020 05:56:19 75.21, -32.58 119.97 12/09/2020 05:57:06 75.21, -32.50 119.90 2.23 47
10 12/09/2020 06:46:38 -76.45, 138.85 61.43 12/09/2020 06:46:08 -76.45, 138.86 61.41 0.50 30
11 12/11/2020 22:13:07 75.58, 84.34 119.84 12/11/2020 22:13:27 75.59, 84.44 119.80 2.72 20
